Flag Weather past 2 weeks in Bryan – College Station, Texas, U.S.A.

Now
48 °F

Clear.


Feels Like: 48 °F
Forecast: 42 / 66 °F
Wind: No wind

Location: Easterwood Field

Current Time: Nov 27, 2014 at 10:36:36 PM

Latest Report: Nov 27, 2014 at 9:53 PM


Visibility: 10 mi

Pressure: 30.41 "Hg

Humidity: 59%

Dew point: 34 °F

Location of Bryan – College StationLocation

Historic Weather in Bryan – College Station — Graph

°F

Bryan – College Station temperature yesterday

Maximum temperature yesterday: 72 °F (at 2:53 PM)
Minimum temperature yesterday: 42 °F (at 4:53 AM)
Average temperature yesterday: 56 °F

Past Weeks' High & Low Weather Summary

 TemperatureHumidityPressure
High79 °F (Nov 23, 2:53 PM)100% (Nov 16, 1:53 AM)30.56 "Hg (Nov 16, 1:53 AM)
Low29 °F (Nov 14, 3:53 AM)22% (Nov 25, 1:53 PM)29.48 "Hg (Nov 23, 2:53 PM)
Average51 °F65%30.18 "Hg
* Reported Nov 12 8:53 PM — Nov 27 8:53 PM, Bryan – College Station, Weather by CustomWeather, © 2014

Note: Actual official high and low records may vary slightly from our data, if they occured in-between our weather recording intervals... More about our weather records

Advertising

Bryan – College Station weather history for previous 24 hours

 ConditionsComfort  
Time TempWeatherWind HumidityBarometerVisibility
8:53 PM
Nov 27
50 °FClear.No wind52%30.41 "Hg9 mi
7:53 PM51 °FClear.3 mph50%30.41 "Hg10 mi
6:53 PM52 °FClear.No wind50%30.41 "Hg10 mi
5:53 PM58 °FClear.5 mph33%30.40 "Hg10 mi
4:53 PM62 °FSunny.3 mph27%30.41 "Hg10 mi
3:53 PM64 °FSunny.6 mph25%30.41 "Hg10 mi
2:53 PM64 °FSunny.No wind24%30.42 "Hg10 mi
1:53 PM63 °FSunny.No wind24%30.43 "Hg10 mi
12:53 PM62 °FSunny.5 mph23%30.46 "Hg10 mi
11:53 AM59 °FSunny.8 mph26%30.49 "Hg10 mi
10:53 AM57 °FSunny.8 mph31%30.52 "Hg10 mi
9:53 AM53 °FSunny.10 mph41%30.52 "Hg10 mi
8:53 AM50 °FSunny.13 mph50%30.50 "Hg10 mi
7:53 AM47 °FSunny.10 mph56%30.48 "Hg10 mi
6:53 AM45 °FClear.9 mph63%30.47 "Hg10 mi
5:53 AM46 °FClear.9 mph61%30.45 "Hg10 mi
4:53 AM48 °FClear.10 mph61%30.41 "Hg10 mi
3:53 AM49 °FClear.8 mph59%30.40 "Hg10 mi
2:53 AM50 °FClear.12 mph57%30.38 "Hg10 mi
1:53 AM52 °FClear.8 mph55%30.37 "Hg10 mi
12:53 AM52 °FClear.8 mph55%30.34 "Hg10 mi
11:53 PM
Nov 26
50 °FClear.6 mph57%30.34 "Hg10 mi
10:53 PM52 °FClear.5 mph50%30.32 "Hg10 mi
Weather by CustomWeather, © 2014

See weather overviewHow to use our weather pages